• In Germany
  • List of Countries
  • For 7 days
  • Water Temperature
  • Satellite Maps
  • Weather Map
  • Weather Widgets
  • user-avatar
    Login

    Hourly Weather Linz

    Today, 23 June, Friday

    Time Temperature Precipitation Wind Pressure Humidity
    00:00 +21°C° 0.6 mm 2 mps 733 mmHg 86%
    01:00 +21°C° 0 mm 1 mps 732 mmHg 89%
    02:00 +20°C° 0.4 mm 2 mps 732 mmHg 89%
    03:00 +21°C° 0.4 mm 3 mps 732 mmHg 89%
    04:00 +21°C° 0.4 mm 3 mps 732 mmHg 88%
    05:00 +21°C° 0.4 mm 4 mps 732 mmHg 86%
    06:00 +22°C° 0.4 mm 4 mps 732 mmHg 84%
    07:00 +23°C° 0.4 mm 5 mps 732 mmHg 81%
    08:00 +25°C° 0.5 mm 5 mps 733 mmHg 78%
    09:00 +26°C° 0.5 mm 6 mps 733 mmHg 74%
    10:00 +27°C° 0.5 mm 7 mps 733 mmHg 71%
    11:00 +28°C° 0.3 mm 7 mps 733 mmHg 69%
    12:00 +28°C° 0.3 mm 7 mps 733 mmHg 68%
    13:00 +28°C° 0.3 mm 7 mps 733 mmHg 66%
    14:00 +28°C° 0.5 mm 6 mps 733 mmHg 69%
    15:00 +28°C° 0.5 mm 6 mps 733 mmHg 71%
    16:00 +27°C° 0.5 mm 5 mps 733 mmHg 73%
    17:00 +26°C° 0.4 mm 5 mps 734 mmHg 77%
    18:00 +25°C° 0.4 mm 4 mps 734 mmHg 81%
    19:00 +23°C° 0.4 mm 4 mps 734 mmHg 85%
    20:00 +22°C° 0.3 mm 3 mps 734 mmHg 88%
    21:00 +21°C° 0.3 mm 3 mps 734 mmHg 91%
    22:00 +20°C° 0.3 mm 2 mps 735 mmHg 95%
    23:00 +19°C° 0 mm 2 mps 735 mmHg 95%

    Tomorrow, 24 June, Saturday

    Time Temperature Precipitation Wind Pressure Humidity
    00:00 +19°C° 0 mm 2 mps 735 mmHg 95%
    01:00 +19°C° 0 mm 2 mps 735 mmHg 95%
    02:00 +19°C° 0.1 mm 2 mps 735 mmHg 95%
    03:00 +18°C° 0.1 mm 2 mps 735 mmHg 95%
    04:00 +18°C° 0.1 mm 2 mps 735 mmHg 96%
    05:00 +19°C° 0 mm 2 mps 735 mmHg 93%
    06:00 +20°C° 0 mm 2 mps 735 mmHg 90%
    07:00 +21°C° 0 mm 2 mps 735 mmHg 87%
    08:00 +22°C° 0 mm 3 mps 735 mmHg 82%
    09:00 +24°C° 0 mm 3 mps 735 mmHg 76%
    10:00 +25°C° 0 mm 3 mps 735 mmHg 71%
    11:00 +26°C° 0 mm 3 mps 735 mmHg 68%
    12:00 +27°C° 0 mm 4 mps 735 mmHg 66%
    13:00 +28°C° 0 mm 4 mps 734 mmHg 64%
    14:00 +28°C° 0 mm 4 mps 734 mmHg 65%
    15:00 +27°C° 0 mm 3 mps 734 mmHg 66%
    16:00 +27°C° 0 mm 3 mps 734 mmHg 67%
    17:00 +26°C° 0.3 mm 3 mps 733 mmHg 73%
    18:00 +25°C° 0.3 mm 2 mps 733 mmHg 80%
    19:00 +24°C° 0.3 mm 2 mps 733 mmHg 86%
    20:00 +21°C° 0.2 mm 2 mps 733 mmHg 89%
    21:00 +21°C° 0.2 mm 1 mps 734 mmHg 92%
    22:00 +19°C° 0.2 mm 1 mps 734 mmHg 95%
    23:00 +19°C° 0.2 mm 1 mps 734 mmHg 94%

    Day after tomorrow, 25 June, Sunday

    Time Temperature Precipitation Wind Pressure Humidity
    00:00 +19°C° 0.2 mm 1 mps 734 mmHg 93%
    01:00 +20°C° 0.2 mm 1 mps 734 mmHg 93%
    02:00 +19°C° 0.6 mm 1 mps 734 mmHg 93%
    03:00 +19°C° 0.6 mm 1 mps 734 mmHg 94%
    04:00 +19°C° 0.6 mm 1 mps 734 mmHg 94%
    05:00 +19°C° 0.1 mm 1 mps 734 mmHg 93%
    06:00 +19°C° 0.1 mm 1 mps 734 mmHg 93%
    07:00 +20°C° 0.1 mm 1 mps 734 mmHg 92%
    08:00 +20°C° 0.4 mm 1 mps 734 mmHg 90%
    09:00 +20°C° 0.4 mm 1 mps 734 mmHg 88%
    10:00 +20°C° 0.4 mm 2 mps 734 mmHg 87%
    11:00 +21°C° 0.2 mm 2 mps 734 mmHg 82%
    12:00 +23°C° 0.2 mm 2 mps 734 mmHg 78%
    13:00 +24°C° 0.2 mm 3 mps 733 mmHg 74%
    14:00 +24°C° 0.1 mm 3 mps 733 mmHg 72%
    15:00 +25°C° 0.1 mm 4 mps 733 mmHg 70%
    16:00 +25°C° 0.1 mm 4 mps 733 mmHg 67%
    17:00 +24°C° 0.1 mm 3 mps 733 mmHg 73%
    18:00 +22°C° 0.1 mm 3 mps 733 mmHg 78%
    19:00 +21°C° 0.1 mm 2 mps 733 mmHg 83%
    20:00 +20°C° 0 mm 2 mps 733 mmHg 86%
    21:00 +18°C° 0 mm 2 mps 734 mmHg 89%
    22:00 +17°C° 0 mm 2 mps 734 mmHg 93%
    23:00 +16°C° 0 mm 2 mps 734 mmHg 93%

    26 June, Monday

    Time Temperature Precipitation Wind Pressure Humidity
    00:00 +16°C° 0 mm 2 mps 734 mmHg 94%
    01:00 +16°C° 0 mm 2 mps 734 mmHg 95%
    02:00 +15°C° 0 mm 1 mps 734 mmHg 95%
    03:00 +15°C° 0 mm 1 mps 734 mmHg 96%
    04:00 +14°C° 0 mm 1 mps 734 mmHg 96%
    05:00 +16°C° 0 mm 1 mps 734 mmHg 92%
    06:00 +19°C° 0 mm 1 mps 734 mmHg 88%
    07:00 +20°C° 0 mm 1 mps 735 mmHg 84%
    08:00 +22°C° 0 mm 1 mps 735 mmHg 79%
    09:00 +23°C° 0 mm 1 mps 735 mmHg 73%
    10:00 +25°C° 0 mm 2 mps 735 mmHg 67%
    11:00 +25°C° 0 mm 2 mps 734 mmHg 65%
    12:00 +26°C° 0 mm 2 mps 734 mmHg 62%
    13:00 +27°C° 0 mm 2 mps 734 mmHg 59%
    14:00 +27°C° 0 mm 2 mps 733 mmHg 59%
    15:00 +27°C° 0 mm 2 mps 733 mmHg 59%
    16:00 +27°C° 0 mm 2 mps 733 mmHg 59%
    17:00 +26°C° 0 mm 2 mps 732 mmHg 65%
    18:00 +25°C° 0 mm 2 mps 732 mmHg 72%
    19:00 +24°C° 0 mm 2 mps 732 mmHg 78%
    20:00 +23°C° 0 mm 2 mps 732 mmHg 82%
    21:00 +20°C° 0 mm 2 mps 732 mmHg 85%
    22:00 +19°C° 0 mm 2 mps 732 mmHg 89%
    23:00 +18°C° 0 mm 2 mps 732 mmHg 90%

    27 June, Tuesday

    Time Temperature Precipitation Wind Pressure Humidity
    00:00 +18°C° 0 mm 2 mps 732 mmHg 90%
    01:00 +17°C° 0 mm 2 mps 731 mmHg 91%
    02:00 +18°C° 0 mm 1 mps 731 mmHg 91%
    03:00 +18°C° 0 mm 1 mps 731 mmHg 91%
    04:00 +16°C° 0 mm 1 mps 730 mmHg 92%
    05:00 +19°C° 0 mm 1 mps 731 mmHg 87%
    06:00 +21°C° 0 mm 1 mps 731 mmHg 82%
    07:00 +21°C° 0 mm 0 mps 731 mmHg 77%
    08:00 +23°C° 0 mm 0 mps 731 mmHg 71%
    09:00 +27°C° 0 mm 1 mps 731 mmHg 65%
    10:00 +29°C° 0 mm 1 mps 731 mmHg 60%
    11:00 +29°C° 0.3 mm 1 mps 731 mmHg 58%
    12:00 +30°C° 0.3 mm 1 mps 730 mmHg 57%
    13:00 +30°C° 0.3 mm 1 mps 730 mmHg 56%
    14:00 +30°C° 0.4 mm 1 mps 730 mmHg 56%
    15:00 +31°C° 0.4 mm 1 mps 730 mmHg 55%
    16:00 +31°C° 0.4 mm 1 mps 730 mmHg 54%
    17:00 +30°C° 0.2 mm 1 mps 730 mmHg 62%
    18:00 +28°C° 0.2 mm 1 mps 730 mmHg 71%
    19:00 +27°C° 0.2 mm 1 mps 730 mmHg 79%
    20:00 +25°C° 0.1 mm 1 mps 730 mmHg 82%
    21:00 +20°C° 0.1 mm 0 mps 730 mmHg 86%
    22:00 +18°C° 0.1 mm 0 mps 730 mmHg 89%
    23:00 +18°C° 0 mm 0 mps 730 mmHg 89%

    28 June, Wednesday

    Time Temperature Precipitation Wind Pressure Humidity
    00:00 +18°C° 0 mm 0 mps 730 mmHg 88%
    01:00 +20°C° 0 mm 1 mps 730 mmHg 88%
    02:00 +20°C° 0.1 mm 1 mps 730 mmHg 88%
    03:00 +20°C° 0.1 mm 1 mps 730 mmHg 88%
    04:00 +20°C° 0.1 mm 1 mps 729 mmHg 89%
    05:00 +22°C° 0.2 mm 1 mps 729 mmHg 85%
    06:00 +23°C° 0.2 mm 1 mps 729 mmHg 80%
    07:00 +23°C° 0.2 mm 0 mps 729 mmHg 76%
    08:00 +27°C° 0.1 mm 1 mps 729 mmHg 71%
    09:00 +28°C° 0.1 mm 2 mps 728 mmHg 65%
    10:00 +30°C° 0.1 mm 3 mps 728 mmHg 60%
    11:00 +31°C° 0 mm 3 mps 727 mmHg 56%
    12:00 +33°C° 0 mm 3 mps 726 mmHg 52%
    13:00 +34°C° 0 mm 4 mps 726 mmHg 48%
    14:00 +34°C° 0 mm 4 mps 725 mmHg 48%
    15:00 +34°C° 0 mm 4 mps 724 mmHg 48%
    16:00 +35°C° 0 mm 3 mps 723 mmHg 47%
    17:00 +33°C° 0 mm 3 mps 723 mmHg 52%
    18:00 +30°C° 0 mm 3 mps 722 mmHg 57%
    19:00 +28°C° 0 mm 3 mps 722 mmHg 61%
    20:00 +26°C° 0 mm 3 mps 722 mmHg 64%
    21:00 +25°C° 0 mm 3 mps 723 mmHg 67%
    22:00 +22°C° 0 mm 3 mps 723 mmHg 70%
    23:00 +21°C° 0.1 mm 3 mps 723 mmHg 76%
    Show more